[Iaude] MPEC E186: 2024 EG4 [a=1.24,e=0.39,i=11.2,H=24.6]
    mpec at cfa.harvard.edu 
    mpec at cfa.harvard.edu
       
    Thu Mar 14 17:44:43 EDT 2024
    
    
  
M.P.E.C. 2024-E186                               Issued 2024 March 14, 21:43 UT
     The Minor Planet Electronic Circulars contain information on unusual
         minor planets, routine data on comets and natural satellites,
         and occasional editorial announcements.  They are published
    on behalf of Division F of the International Astronomical Union by the
          Minor Planet Center, Smithsonian Astrophysical Observatory,
                          Cambridge, MA 02138, U.S.A.
			  
             Prepared using the Tamkin Foundation Computer Network
                              MPC at CFA.HARVARD.EDU
            URL https://www.minorplanetcenter.net/    ISSN 1523-6714
                                    2024 EG4                                    
Observations:
     K24E04G 1C2024 03 12.18916 06 36 16.74 +54 24 57.5          18.4 GVEE186703
     K24E04G 1C2024 03 12.19156 06 36 31.58 +54 23 20.9          18.5 GVEE186703
     K24E04G*1C2024 03 14.31531308 47 02.785+27 46 42.56         18.42GVEE186703
     K24E04G 1C2024 03 14.31738908 47 06.540+27 45 19.15         18.19GVEE186703
     K24E04G 1C2024 03 14.31946208 47 10.324+27 43 55.24         18.93GVEE186703
     K24E04G 1C2024 03 14.32153908 47 14.140+27 42 31.64         18.59GVEE186703
     K24E04G mC2024 03 14.34839008 48 03.096+27 24 35.28         17.89GVEE186V06
     K24E04G mC2024 03 14.34855408 48 03.398+27 24 28.76         18.43GVEE186V06
     K24E04G mC2024 03 14.34871608 48 03.704+27 24 21.71         19.01GVEE186V06
     K24E04G mC2024 03 14.34887908 48 03.996+27 24 15.66         18.15GVEE186V06
     K24E04G mC2024 03 14.34904308 48 04.295+27 24 09.04         18.22GVEE186V06
     K24E04G mC2024 03 14.34919308 48 04.568+27 24 02.95         18.52GVEE186V06
     K24E04G mC2024 03 14.34934208 48 04.828+27 23 57.05         18.27GVEE186V06
     K24E04G mC2024 03 14.34949308 48 05.116+27 23 51.14         18.38GVEE186V06
     K24E04G mC2024 03 14.39083308 49 20.143+26 56 25.66         18.30GVEE186V06
     K24E04G mC2024 03 14.39099308 49 20.424+26 56 19.03         18.12GVEE186V06
     K24E04G mC2024 03 14.39115408 49 20.723+26 56 13.13         18.39GVEE186V06
     K24E04G mC2024 03 14.39131608 49 21.004+26 56 06.58         18.20GVEE186V06
     K24E04G KC2024 03 14.52111908 53 31.85 +25 34 28.6                VEE186900
     K24E04G KB2024 03 14.52281 08 53 41.00 +25 32 54.4          17.8 GVEE186P13
     K24E04G KB2024 03 14.52537 08 53 38.55 +25 31 47.1          18.2 GXEE186Q06
     K24E04G KB2024 03 14.52664 08 53 47.20 +25 30 31.1          17.4 GVEE186P13
     K24E04G KB2024 03 14.52818 08 53 43.12 +25 30 01.4          18.0 GXEE186Q06
     K24E04G KC2024 03 14.52871508 53 44.10 +25 29 43.1          18.2 GVEE186900
     K24E04G KB2024 03 14.53047 08 53 53.45 +25 28 08.2          19.3 GVEE186P13
     K24E04G KB2024 03 14.53095 08 53 47.57 +25 28 18.0          18.2 GXEE186Q06
     K24E04G KB2024 03 14.53430 08 53 59.65 +25 25 45.3          18.2 GVEE186P13
     K24E04G KC2024 03 14.53631108 53 56.31 +25 24 57.9          18.1 GVEE186900
     K24E04G KC2024 03 14.65304408 57 00.29 +24 12 47.9          18.1 GVEE186900
     K24E04G KC2024 03 14.66064608 57 12.17 +24 08 08.3          18.4 GVEE186900
     K24E04G KC2024 03 14.66824708 57 23.94 +24 03 30.8                VEE186900
     K24E04G 1C2024 03 14.76764 09 00 24.03 +23 03 53.8          18.5 VXEE186033
     K24E04G 1C2024 03 14.76787 09 00 24.37 +23 03 45.8          18.6 VXEE186033
     K24E04G 1C2024 03 14.76810 09 00 24.73 +23 03 37.9          18.8 VXEE186033
     K24E04G 1C2024 03 14.76834 09 00 25.06 +23 03 29.4          18.5 VXEE186033
     K24E04G 1C2024 03 14.76858 09 00 25.41 +23 03 21.0          18.5 VXEE186033
     K24E04G KC2024 03 14.78768 09 00 51.87 +22 52 31.3          18.0 GXEE186G02
     K24E04G KC2024 03 14.79544 09 01 03.08 +22 48 03.2          18.2 GXEE186G02
     K24E04G KC2024 03 14.80135 09 01 14.05 +22 44 59.9          18.7 GVEE186104
     K24E04G KC2024 03 14.80360 09 01 17.26 +22 43 42.4          18.6 GVEE186104
     K24E04G KC2024 03 14.80584 09 01 20.43 +22 42 25.3                VEE186104
     K24E04G KC2024 03 14.82339709 01 44.43 +22 32 18.5          18.6 GVEE186L01
     K24E04G KC2024 03 14.82396709 01 45.26 +22 31 58.7          18.6 GVEE186L01
     K24E04G KC2024 03 14.82454009 01 46.06 +22 31 38.9          18.7 GVEE186L01
     K24E04G IC2024 03 14.82510809 01 46.82 +22 31 19.4          18.7 GVEE186L01
     K24E04G IC2024 03 14.82576909 01 47.76 +22 30 56.8          18.6 GVEE186L01
     K24E04G KC2024 03 14.82851909 01 55.61 +22 29 23.8          18.5 GXEE186958
     K24E04G KB2024 03 14.83176609 01 56.882+22 27 09.22         17.9 GXEE186K74
     K24E04G KC2024 03 14.83190509 02 00.40 +22 27 27.6          18.2 GXEE186958
     K24E04G KC2024 03 14.83489009 02 04.60 +22 25 45.9          18.5 GXEE186958
     K24E04G KB2024 03 14.83660909 02 03.720+22 24 23.29         17.8 GXEE186K74
     K24E04G KC2024 03 14.84010 09 02 07.50 +22 23 20.4          17.5 rqEE186L90
     K24E04G KB2024 03 14.84140909 02 10.435+22 21 39.67         17.9 GXEE186K74
     K24E04G KC2024 03 14.84219 09 02 10.27 +22 22 07.9                qEE186L90
     K24E04G KC2024 03 14.84424 09 02 13.16 +22 20 58.5                qEE186L90
     K24E04G KC2024 03 14.85097809 02 23.11 +22 16 32.0          18.3 GXEE186595
     K24E04G KC2024 03 14.85899109 02 34.23 +22 11 59.0          18.4 GXEE186595
     K24E04G KC2024 03 14.86700209 02 45.33 +22 07 26.5          18.2 GXEE186595
     K24E04G KC2024 03 14.88425909 03 09.839+21 57 50.60         18.3 GVEE186K63
     K24E04G KC2024 03 14.89155909 03 19.843+21 53 43.18         18.3 GVEE186K63
     K24E04G KC2024 03 14.89497109 03 24.489+21 51 48.09         18.5 GVEE186K63
Observer details:
033 Karl Schwarzschild Observatory, Tautenburg.  Observers S. Melnikov, C.
    Hogner, F. Ludwig, M. Hartmann, B. Stecklum.  Measurer B. Stecklum.
    1.34-m f/3 Schmidt + CCD.
104 San Marcello Pistoiese.  Observers P. Bacci, M. Maestripieri.  Measurer P.
    Bacci.  0.60-m f/4.0 reflector + CCD.
595 Farra d'Isonzo.  Observers G. D'Agostino, E. Pettarin.  Measurer G.
    D'Agostino.  0.61-m f/4.5 reflector + CCD.
703 Catalina Sky Survey.  Observers H. Groeller, V. F. Carvajal.  Measurers B.
    Gray, D. Rankin, F. C. Shelly, T. Beuden, V. F. Carvajal, D. Fay, J. B.
    Fazekas, D. C. Fuls, A. R. Gibbs, A. D. Grauer, H. Groeller, J. K. Hogan,
    R. A. Kowalski, S. M. Larson, G. J. Leonard, R. L. Seaman, K. W.
    Wierzchos.  0.68-m Schmidt + 10K CCD.
900 Moriyama.  Observer Y. Ikari.  0.26-m f/7.0 reflector + CMO.
958 Observatoire de Dax.  Observers P. Dupouy, J. B. de Vanssay.  Measurer P.
    Dupouy.  0.43-m f/2.7 Reflector + CCD.
G02 KYSUCE Observatory, Kysucke Nove Mesto.  Observer M. Urbanik.  0.40-m
    f/6.8 Corrected Dall-Kirkham + CCD.
K63 G. Pascoli Observatory, Castelvecchio Pascoli.  Observer R. Bacci.  0.41-m
    f/3.75 Reflector + CCD.
K74 Muensterschwarzach Observatory, Schwarzach.  Observer C. Gerhard.  0.30-m
    f/3.75 reflector + CMO.
L01 Visnjan Observatory, Tican.  Observers K. Korlevic, I. Lyon.  Measurer K.
    Korlevic.  1.0-m f/2.9 reflector + CCD.
L90 ABObservatory, Rosarno.  Observer A. Brosio.  0.30-m f/3.9 reflector +
    CCD.
P13 Baihuashan Observatory, Beijing.  Observers Z. Wang, B. Liu.  Measurer Z.
    Wang.  0.28-m f/2.2 reflector + CMO.
Q06 Tarui Observatory, Tarui.  Observer H. Watanabe.  0.35-m f/1.9 Schmidt-
    Cassegrain + CMO.
V06 Catalina Sky Survey-Kuiper.  Observer G. J. Leonard.  Measurers T. Beuden,
    V. F. Carvajal, D. Fay, J. B. Fazekas, D. C. Fuls, A. R. Gibbs, A. D.
    Grauer, H. Groeller, J. K. Hogan, R. A. Kowalski, S. M. Larson, G. J.
    Leonard, D. Rankin, R. L. Seaman, F. C. Shelly, K. W. Wierzchos.  1.55-m
    reflector + 1K CCD.
Orbital elements:
2024 EG4                                                 Earth MOID = 0.0127 AU
Epoch 2024 Mar. 31.0 TT = JDT 2460400.5                 Veres                   
M  54.08998              (2000.0)            P               Q                  
n   0.71362196     Peri.   94.60406     +0.02143251     -0.99956899             
a   1.2401967      Node   354.05579     +0.82319108     +0.02903101             
e   0.3885457      Incl.   11.17001     +0.56735975     -0.00436194             
P   1.38           H   24.61          G   0.15           U   7                  
Residuals in seconds of arc
240312 703  0.2-  0.6+    240314 P13  0.2-  0.4-    240314 L01  0.0   0.3+
240312 703  0.2+  0.6-    240314 Q06  0.5+  0.2+    240314 L01  0.1-  0.1+
240314 703  0.3+  0.1+    240314 900  0.1-  0.1+    240314 L01  0.7-  0.1+
240314 703  0.2-  0.3+    240314 P13  0.4+  0.5-    240314 L01  0.5-  0.2+
240314 703  0.3-  0.3-    240314 Q06  0.4+  0.9+    240314 958  0.0   0.3+
240314 703  0.1-  0.3-    240314 P13  0.5+  0.5-    240314 K74  0.2+  0.3+
240314 V06  0.1-  0.1+    240314 900  0.1-  0.1-    240314 958  0.2+  0.4-
240314 V06  0.1-  0.2+    240314 900  0.5-  0.4+    240314 958  0.3+  0.3-
240314 V06  0.1+  0.4-    240314 900  0.2+  0.8-    240314 K74  0.2+  0.0
240314 V06  0.0   0.0     240314 900  0.5-  0.5-    240314 L90  0.6+  0.0
240314 V06  0.0   0.0     240314 033  0.0   0.1+    240314 K74  0.3-  0.3+
240314 V06  0.0   0.1-    240314 033  0.1+  0.1+    240314 L90  1.2-  1.0-
240314 V06  0.1-  0.0     240314 033  0.4+  0.2+    240314 L90  0.5-  0.3-
240314 V06  0.0   0.1+    240314 033  0.1+  0.0     240314 595  0.3-  0.3+
240314 V06  0.3+  0.0     240314 033  0.0   0.1-    240314 595  0.4-  0.2+
240314 V06  0.2+  0.3-    240314 G02  0.5-  0.1+    240314 595  0.2-  0.2+
240314 V06  0.3+  0.2+    240314 G02  0.2-  0.3+    240314 K63  0.1-  0.3+
240314 V06  0.1+  0.1+    240314 104  0.2+  0.2-    240314 K63  0.3+  0.4-
240314 900  0.0   0.1+    240314 104  0.2+  0.2-    240314 K63  0.3+  0.2-
240314 P13  0.0   0.2-    240314 104  0.1-  0.3-
240314 Q06  0.0   0.4+    240314 L01  0.4-  0.5+
Ephemeris:
2024 EG4                 a,e,i = 1.24, 0.39, 11                  q = 0.7583
Date    TT    R. A. (2000) Decl.     Delta      r    Elong.  Phase     V
2024 02 13    22 52 40.8 +22 36 13   0.2162  0.8336    40.1   130.3    26.6
...
2024 02 28    23 12 20.7 +31 12 01   0.1006  0.9159    40.3   135.6    25.7
...
2024 03 07    00 06 50.5 +45 16 46   0.04479 0.9655    52.1   125.8    23.1
...
2024 03 13    07 45 45.0 +44 17 54   0.02294 1.0040   115.3    63.5    18.7
2024 03 14    08 36 18.0 +31 25 11   0.02563 1.0105   128.7    50.1    18.5
2024 03 15    09 05 55.2 +20 56 10   0.02994 1.0169   138.0    40.8    18.6
...
2024 03 21    10 04 49.4 -04 28 52   0.06822 1.0560   150.4    27.7    20.1
...
2024 03 29    10 24 55.7 -12 05 33   0.1273  1.1079   147.6    28.9    21.6
...
2024 04 13    10 43 32.2 -15 35 25   0.2480  1.2029   139.8    32.5    23.4
M. P. C. Staff               (C) Copyright 2024 MPC           M.P.E.C. 2024-E186
    
    
More information about the Iaude
mailing list